Flag for Germany Weather past 2 weeks in Landshut, Bavaria, Germany

Now
79 °F

Passing clouds.


Feels Like: 80 °F
Forecast: 61 / 84 °F
Wind: 1 mph from East

Location: Muenchen Flughafen

Current Time: Jul 2, 2015 at 9:18:00 PM

Latest Report: Jul 2, 2015 at 9:00 PM


Visibility: 25 mi

Pressure: 30.15 "Hg

Humidity: 51%

Dew point: 59 °F

Location of LandshutLocation

Historic Weather in Landshut — Graph

°F

Landshut temperature yesterday

Maximum temperature yesterday: 83 °F (at 5:00 PM)
Minimum temperature yesterday: 56 °F (at 4:00 AM)
Average temperature yesterday: 71 °F

Past Weeks' High & Low Weather Summary

 TemperatureHumidityPressure
High85 °F (Jul 2, 5:00 PM)100% (Jun 25, 3:00 AM)30.27 "Hg (Jun 25, 3:00 AM)
Low44 °F (Jun 25, 5:00 AM)34% (Jun 30, 6:00 PM)29.74 "Hg (Jun 22, 11:00 PM)
Average62 °F73%30.09 "Hg
* Reported Jun 17 8:00 PM — Jul 2 8:00 PM, Landshut, Weather by CustomWeather, © 2015

Note: Actual official high and low records may vary slightly from our data, if they occured in-between our weather recording intervals... More about our weather records

Advertising

Landshut weather history for previous 24 hours

 ConditionsComfort  
Time TempWeatherWind HumidityBarometerVisibility
8:00 PM
Thu, Jul 2
82 °FPassing clouds.2 mph44%30.13 "Hg25 mi
7:00 PM83 °FPassing clouds.3 mph46%30.11 "Hg25 mi
6:00 PM84 °FPassing clouds.3 mph45%30.11 "Hg25 mi
5:00 PM85 °FPassing clouds.3 mph44%30.11 "Hg25 mi
4:00 PM84 °FPassing clouds.5 mph41%30.11 "Hg25 mi
3:00 PM83 °FPassing clouds.5 mph46%30.11 "Hg25 mi
2:00 PM82 °FPassing clouds.5 mph48%30.12 "Hg25 mi
1:00 PM82 °FPassing clouds.5 mph48%30.14 "Hg19 mi
12:00 PM80 °FPassing clouds.5 mph52%30.14 "Hg19 mi
11:00 AM78 °FPassing clouds.3 mph62%30.14 "Hg14 mi
10:00 AM74 °FScattered clouds.2 mph66%30.16 "Hg12 mi
9:00 AM71 °FScattered clouds.3 mph69%30.17 "Hg12 mi
8:00 AM67 °FScattered clouds.1 mph76%30.17 "Hg12 mi
7:00 AM66 °FScattered clouds.1 mph86%30.16 "Hg12 mi
6:00 AM56 °FFog.1 mph98%30.19 "Hg9 mi
5:00 AM55 °FFog.1 mph99%30.18 "Hg11 mi
4:00 AM56 °FClear.No wind98%30.17 "Hg12 mi
11:00 PM
Wed, Jul 1
66 °FClear.1 mph77%30.12 "Hg25 mi
10:00 PM69 °FClear.1 mph70%30.11 "Hg25 mi
9:00 PM77 °FSunny.1 mph52%30.07 "Hg25 mi
Weather by CustomWeather, © 2015

See weather overviewHow to use our weather pages